EW4960 Weather Reports


Display with metric or nautical units.
time (UTC)temp
F
wind
direction
speed
MPH
gust
MPH
rain 1hr
in
rain 24hr
in
rain mn
in
humidity
%
barometer
mb
20240715163042 91 208 0.0 11.0 0.00 0.00 0.00 39 1009.3
20240715161535 91 198 0.0 7.0 0.00 0.00 0.00 35 1009.4
20240715160033 90 228 0.0 6.0 0.00 0.00 0.00 36 1009.6
20240715154542 89 227 0.0 5.0 0.00 0.00 0.00 21 1009.6
20240715153027 89 211 0.0 0.0 0.00 0.00 0.00 1 1009.7
20240715151520 88 216 0.0 4.0 0.00 0.00 0.00 10 1009.6
20240715150015 87 147 0.0 8.0 0.00 0.00 0.00 1 1009.6
20240715144515 86 129 0.0 3.0 0.00 0.00 0.00 1 1009.9
20240715143005 85 202 0.0 1.0 0.00 0.00 0.00 1 1010.0
20240715141625 85 232 0.0 0.0 0.00 0.00 0.00 1 1010.1
20240715140056 84 191 0.0 1.0 0.00 0.00 0.00 1 1010.2
20240715134552 82 200 0.0 4.0 0.00 0.00 0.00 1 1010.2
20240715133047 80 198 0.0 1.0 0.00 0.00 0.00 1 1010.3
20240715131603 79 198 0.0 0.0 0.00 0.00 0.00 1 1010.6
20240715130043 78 198 0.0 2.0 0.00 0.00 0.00 1 1010.8
20240715124535 77 201 0.0 0.0 0.00 0.00 0.00 1 1010.9
20240715123035 77 198 0.0 0.0 0.00 0.00 0.00 1 1010.9
20240715121537 76 201 0.0 0.0 0.00 0.00 0.00 1 1011.0
20240715120034 75 201 0.0 1.0 0.00 0.00 0.00 1 1011.0
20240715114534 75 221 0.0 0.0 0.00 0.00 0.00 1 1011.0
20240715113034 74 219 0.0 0.0 0.00 0.00 0.00 1 1010.8
20240715111537 74 219 0.0 0.0 0.00 0.00 0.00 1 1010.8
20240715110032 74 219 0.0 0.0 0.00 0.00 0.00 1 1010.8
20240715104532 73 219 0.0 0.0 0.00 0.00 0.00 1 1010.8
20240715103031 72 219 0.0 0.0 0.00 0.00 0.00 1 1010.9
20240715101533 72 219 0.0 1.0 0.00 0.00 0.00 1 1011.0
20240715100033 72 219 0.0 2.0 0.00 0.00 0.00 1 1011.0
20240715094529 72 219 0.0 0.0 0.00 0.00 0.00 1 1011.2
20240715093029 72 220 0.0 0.0 0.00 0.00 0.00 1 1011.2
20240715091527 72 220 0.0 0.0 0.00 0.00 0.00 1 1011.3
20240715090022 72 220 0.0 0.0 0.00 0.00 0.00 1 1011.0
20240715084515 72 220 0.0 0.0 0.00 0.00 0.00 1 1010.9
20240715083011 72 220 0.0 0.0 0.00 0.00 0.00 1 1010.9
20240715081507 73 220 0.0 0.0 0.00 0.00 0.00 1 1010.9
20240715080002 73 220 0.0 0.0 0.00 0.00 0.00 1 1010.9
20240715074615 73 220 0.0 0.0 0.00 0.00 0.00 1 1010.6
20240715073054 74 220 0.0 0.0 0.00 0.00 0.00 1 1010.7
20240715071552 74 220 0.0 0.0 0.00 0.00 0.00 1 1010.7
20240715070107 75 220 0.0 0.0 0.00 0.00 0.00 1 1010.8
20240715064541 75 220 0.0 0.0 0.00 0.00 0.00 1 1010.9
20240715063036 76 220 0.0 1.0 0.00 0.00 0.00 1 1011.1
20240715061534 76 220 0.0 1.0 0.00 0.00 0.00 1 1011.2
20240715060029 77 220 0.0 0.0 0.00 0.00 0.00 1 1011.3
20240715054523 77 220 0.0 1.0 0.00 0.00 0.00 1 1011.4
20240715053033 77 220 0.0 0.0 0.00 0.00 0.00 1 1011.6
20240715051514 76 225 0.0 1.0 0.00 0.00 0.00 1 1011.8
20240715050010 76 225 0.0 0.0 0.00 0.00 0.00 1 1011.9
20240715044505 75 225 0.0 0.0 0.00 0.00 0.00 1 1011.9
20240715043000 75 225 0.0 0.0 0.00 0.00 0.00 1 1011.8
20240715041556 75 225 0.0 0.0 0.00 0.00 0.00 1 1011.9
20240715040053 75 225 0.0 0.0 0.00 0.00 0.00 1 1012.1
20240715034550 76 225 0.0 1.0 0.00 0.00 0.00 1 1012.1
20240715033043 75 225 0.0 0.0 0.00 0.00 0.00 1 1011.9
20240715031540 75 225 0.0 0.0 0.00 0.00 0.00 1 1012.0
20240715030042 75 225 0.0 0.0 0.00 0.00 0.00 1 1012.2
20240715024533 75 225 0.0 0.0 0.00 0.00 0.00 1 1012.1
20240715023026 75 225 0.0 0.0 0.00 0.00 0.00 1 1012.1
20240715021521 75 225 0.0 0.0 0.00 0.00 0.00 1 1012.2
20240715020028 76 225 0.0 0.0 0.00 0.00 0.00 1 1012.2
20240715014512 77 225 0.0 0.0 0.00 0.00 0.00 1 1012.2
20240715013008 78 225 0.0 0.0 0.00 0.00 0.00 1 1012.0
20240715011504 79 225 0.0 0.0 0.00 0.00 0.00 1 1012.0
20240715010101 80 225 0.0 0.0 0.00 0.00 0.00 11 1011.9
20240715004607 81 225 0.0 0.0 0.00 0.00 0.00 27 1011.8
20240715003050 82 225 0.0 0.0 0.00 0.00 0.00 29 1011.9
20240715001546 83 225 0.0 0.0 0.00 0.00 0.00 42 1011.8
20240715000042 84 217 0.0 0.0 0.00 0.00 0.00 41 1011.9
20240714234551 86 217 0.0 0.0 0.00 0.00 0.00 45 1011.9
20240714233033 87 146 0.0 0.0 0.00 0.00 0.00 45 1011.9
20240714231529 89 160 0.0 0.0 0.00 0.00 0.00 45 1011.9
20240714230024 91 160 0.0 0.0 0.00 0.00 0.00 44 1011.8
20240714224520 92 160 0.0 0.0 0.00 0.00 0.00 43 1011.8
20240714223015 93 160 0.0 0.0 0.00 0.00 0.00 41 1011.8
20240714221517 92 160 0.0 0.0 0.00 0.00 0.00 42 1011.7
20240714220007 91 160 0.0 0.0 0.00 0.00 0.00 43 1011.8
20240714214502 91 161 0.0 0.0 0.00 0.00 0.00 44 1011.8
20240714213102 91 163 0.0 2.0 0.00 0.00 0.00 43 1011.8
20240714211619 91 169 0.0 2.0 0.00 0.00 0.00 44 1011.9
20240714210049 91 168 0.0 0.0 0.00 0.00 0.00 43 1011.8
20240714204557 91 249 0.0 0.0 0.00 0.00 0.00 43 1011.9
20240714203041 90 249 0.0 0.0 0.00 0.00 0.00 45 1012.1
20240714201603 91 213 0.0 0.0 0.00 0.00 0.00 43 1012.4
20240714200034 91 213 0.0 0.0 0.00 0.00 0.00 44 1012.4
20240714194527 91 253 0.0 0.0 0.00 0.00 0.00 43 1012.6
20240714193026 90 253 0.0 0.0 0.00 0.00 0.00 44 1012.7
20240714191518 89 256 0.0 1.0 0.00 0.00 0.00 42 1012.9
20240714190014 89 257 0.0 1.0 0.00 0.00 0.00 43 1013.0
20240714184509 89 263 0.0 0.0 0.00 0.00 0.00 43 1013.1
20240714183006 87 263 0.0 0.0 0.00 0.00 0.00 44 1013.2
20240714181501 88 264 0.0 0.0 0.00 0.00 0.00 43 1013.3
20240714180057 88 267 0.0 1.0 0.00 0.00 0.00 43 1013.4
20240714174556 88 213 0.0 0.0 0.00 0.01 0.00 43 1013.6
20240714173048 87 206 0.0 2.0 0.00 0.01 0.00 43 1013.9
20240714171544 87 206 0.0 1.0 0.00 0.01 0.00 43 1014.0
20240714170039 86 200 0.0 2.0 0.00 0.01 0.00 43 1014.2
20240714164536 86 200 0.0 9.0 0.00 0.01 0.00 42 1014.3